This is the latest recevied weather packets stored in our database for station/object KD8NVS-13. If no packets are shown the sender has not sent any weather packets the latest 10 day(s).
| Time | Temp. | Humidity | Pressure | Rain* | Wind** | Luminosity | Snow |
|---|---|---|---|---|---|---|---|
| 1778106808 | 13.89° C | 51% | 1003.8 hPa | 0 mm | - | 79 W/m² | - |
| 1778106505 | 13.89° C | 51% | 1003.5 hPa | 0 mm | - | 83 W/m² | - |
| 1778106200 | 13.89° C | 51% | 1003.8 hPa | 0 mm | - | 117 W/m² | - |
| 1778105899 | 13.89° C | 50% | 1003.5 hPa | 0 mm | - | 96 W/m² | - |
| 1778105596 | 13.89° C | 50% | 1003.5 hPa | 0 mm | - | 103 W/m² | - |
| 1778105293 | 13.89° C | 50% | 1003.2 hPa | 0 mm | - | 136 W/m² | - |
| 1778104988 | 13.89° C | 51% | 1002.8 hPa | 0 mm | - | 155 W/m² | - |
| 1778104685 | 13.89° C | 51% | 1002.8 hPa | 0 mm | - | 156 W/m² | - |
| 1778104381 | 13.89° C | 49% | 1002.8 hPa | 0 mm | - | 144 W/m² | - |
| 1778104077 | 13.89° C | 50% | 1003.2 hPa | 0 mm | - | 142 W/m² | - |
| 1778103774 | 13.89° C | 49% | 1002.8 hPa | 0 mm | - | 122 W/m² | - |
| 1778103473 | 13.89° C | 51% | 1002.5 hPa | 0 mm | - | 175 W/m² | - |
| 1778103169 | 13.89° C | 51% | 1002.5 hPa | 0 mm | - | 161 W/m² | - |
| 1778102867 | 13.89° C | 50% | 1002.5 hPa | 0 mm | - | 98 W/m² | - |
| 1778102562 | 13.89° C | 51% | 1002.5 hPa | 0 mm | - | 115 W/m² | - |
| 1778102257 | 14.44° C | 51% | 1002.5 hPa | 0 mm | - | 140 W/m² | - |
| 1778101954 | 14.44° C | 51% | 1002.5 hPa | 0 mm | - | 165 W/m² | - |
| 1778101651 | 14.44° C | 50% | 1002.5 hPa | 0 mm | - | 161 W/m² | - |
| 1778101343 | 14.44° C | 51% | 1002.5 hPa | 0 mm | - | 151 W/m² | - |
| 1778101040 | 14.44° C | 51% | 1002.5 hPa | 0 mm | - | 85 W/m² | - |
| 1778100735 | 14.44° C | 51% | 1002.1 hPa | 0 mm | - | 155 W/m² | - |
| 1778100432 | 14.44° C | 50% | 1002.1 hPa | 0 mm | - | 156 W/m² | - |
| 1778100129 | 15° C | 49% | 1002.5 hPa | 0 mm | - | 177 W/m² | - |
| 1778099828 | 15° C | 49% | 1002.5 hPa | 0 mm | - | 234 W/m² | - |
| 1778099524 | 15.56° C | 49% | 1002.1 hPa | 0 mm | - | 254 W/m² | - |
* Rain latest hour (hover to see other rain measurements)
** Current wind speed in m/s (hover to see current wind gust speed)